Regional Weather Roundup
Issued by NWS Charleston, WV

Home | Current Version | Previous Version | Text Only | Print | Product List | Glossary On
Versions: 1 2 3 4 5 6 7 8 9 10 11 12 13 14 15 16 17 18 19 20 21 22 23 24 25 26 27 28 29 30 31 32 33 34 35 36 37 38 39 40 41 42 43 44 45 46 47 48 49 50
000
ASUS41 KRLX 091110
RWRRLX
West Virginia Regional Weather Roundup
National Weather Service Charleston WV
Issued by National Weather Service Pittsburgh PA
600 AM EST FRI DEC 09 2016

Note: "fair" indicates few or no clouds below 12,000 feet with no
significant weather and/or obstructions to visibility.

WVZ003-091200-
Northern Panhandle of West Virginia

CITY           SKY/WX    TMP DP  RH WIND       PRES   REMARKS
WHEELING       CLOUDY    21  15  78 W16G23    30.33R WCI   7
$$

WVZ009-091200-
Northwest West Virginia

CITY           SKY/WX    TMP DP  RH WIND       PRES   REMARKS
PARKERSBURG    FLURRIES  23  15  71 VRB5      30.44R WCI  17
$$

WVZ006-091200-
Western West Virginia

CITY           SKY/WX    TMP DP  RH WIND       PRES   REMARKS
HUNTINGTON     CLOUDY    24  15  68 W8        30.46R WCI  15
$$

WVZ015-091200-
West Central West Virginia

CITY           SKY/WX    TMP DP  RH WIND       PRES   REMARKS
CHARLESTON     CLOUDY    24  13  62 W12G18    30.43R WCI  13
$$

WVZ031-091200-
North Central West Virginia

CITY           SKY/WX    TMP DP  RH WIND       PRES   REMARKS
CLARKSBURG     FLURRIES  22  17  81 W8        30.35R WCI  12
MORGANTOWN     FLURRIES  23  15  71 SW8       30.33R WCI  14
$$

WVZ035-042-091200-
South Central West Virginia

CITY           SKY/WX    TMP DP  RH WIND       PRES   REMARKS
BECKLEY        CLOUDY    17  10  74 NW10      30.31R WCI   5
BLUEFIELD      LGT SNOW  18  12  77 NW10G21   30.27R WCI   6
$$

WVZ045-091200-
Greenbrier Valley of West Virginia

CITY           SKY/WX    TMP DP  RH WIND       PRES   REMARKS
LEWISBURG      CLOUDY    18  10  68 CALM      30.29R
$$

WVZ047-091200-
Northern Mountains of West Virginia

CITY           SKY/WX    TMP DP  RH WIND       PRES   REMARKS
ELKINS         LGT SNOW  20  12  71 W5        30.30R WCI  13
$$

WVZ052-091200-
Eastern Panhandle of West Virginia

CITY           SKY/WX    TMP DP  RH WIND       PRES   REMARKS
MARTINSBURG    PTCLDY    27  13  55 W17       30.26R WCI  14
PETERSBURG     MOCLDY    28  14  54 W12G17    30.31R WCI  18
$$




USA.gov is the U.S. government's official web portal to all federal, state and local government web resources and services.